Flag for U.S.A. Weather past 2 weeks in Overland Park, Kansas, U.S.A.

Now
86 °F

Passing clouds.


Feels Like: 92 °F
Forecast: 73 / 89 °F
Wind: 9 mph from East

Location: Johnson County Executive Airport

Current Time: Aug 27, 2014 at 2:22:21 PM

Latest Report: Aug 27, 2014 at 1:53 PM


Visibility: 10 mi

Pressure: 30.06 "Hg

Humidity: 63%

Dew point: 72 °F

Location of Overland ParkLocation

Historic Weather in Overland Park — Graph

°F

Overland Park temperature yesterday

Maximum temperature yesterday: 91 °F (at 3:53 PM)
Minimum temperature yesterday: 74 °F (at 6:53 AM)
Average temperature yesterday: 82 °F

Past Weeks' High & Low Weather Summary

 TemperatureHumidityPressure
High96 °F (Aug 23, 3:53 PM)100% (Aug 17, 7:53 AM)30.14 "Hg (Aug 17, 7:53 AM)
Low59 °F (Aug 13, 5:53 AM)34% (Aug 23, 4:53 PM)29.72 "Hg (Aug 19, 5:53 AM)
Average79 °F69%29.91 "Hg
* Reported Aug 12 12:53 PM — Aug 27 12:53 PM, Overland Park, Weather by CustomWeather, © 2014

Note: Actual official high and low records may vary slightly from our data, if they occured in-between our weather recording intervals... More about our weather records

Advertising

Overland Park weather history for previous 24 hours

 ConditionsComfort  
Time TempWeatherWind HumidityBarometerVisibility
12:53 PM
Aug 27
85 °FSunny.7 mph65%30.08 "Hg10 mi
11:53 AM84 °FSunny.7 mph67%30.09 "Hg10 mi
10:53 AM81 °FSunny.8 mph72%30.09 "Hg10 mi
9:53 AM81 °FSunny.8 mph72%30.08 "Hg10 mi
8:53 AM78 °FPartly sunny.8 mph76%30.07 "Hg10 mi
7:53 AM72 °FSunny.7 mph87%30.05 "Hg10 mi
6:53 AM71 °FClear.3 mph90%30.05 "Hg10 mi
5:53 AM72 °FClear.5 mph93%30.03 "Hg10 mi
4:53 AM74 °FClear.7 mph94%30.02 "Hg10 mi
3:53 AM75 °FPassing clouds.5 mph94%30.03 "Hg10 mi
2:53 AM75 °FClear.6 mph94%30.04 "Hg10 mi
1:53 AM77 °FClear.6 mph88%30.05 "Hg10 mi
12:53 AM78 °FClear.5 mph84%30.04 "Hg10 mi
11:53 PM
Aug 26
79 °FClear.5 mph82%30.05 "Hg10 mi
10:53 PM81 °FClear.7 mph77%30.04 "Hg10 mi
9:53 PM82 °FClear.8 mph74%30.03 "Hg10 mi
8:53 PM83 °FSunny.8 mph74%30.03 "Hg10 mi
7:53 PM86 °FSunny.9 mph59%30.01 "Hg10 mi
6:53 PM88 °FSunny.3 mph54%30.00 "Hg10 mi
5:53 PM90 °FSunny.No wind50%29.98 "Hg10 mi
4:53 PM90 °FSunny.9 mph52%30.00 "Hg10 mi
3:53 PM91 °FSunny.5 mph49%30.01 "Hg10 mi
2:53 PM90 °FSunny.8 mph56%30.03 "Hg10 mi
Weather by CustomWeather, © 2014

See weather overviewHow to use our weather pages